ITY1625 LIRF-LIBR

Flight info

Callsign ITY1625
Flight time 0h 44m
Altitude 33000
Route SIPRO DCT TOPNO L995 ROBOT
Aircraft A20N/M-SDE2E3FGHIJ1RWXY/LB1

Departure

Time 2026-05-06 13:47
Airport Rome–Fiumicino Leonardo da Vinci International Airport (LIRF)

Arrival

Time 2026-05-06 14:31
Airport Brindisi Airport (LIBR)
Time Latitude Longitude Altitude Speed Heading
2026-05-06 13:12 41.79885 12.26500 14 ft 0 kts 70°
2026-05-06 13:38 41.79887 12.26506 14 ft 3 kts 70°
2026-05-06 13:38 41.79912 12.26537 14 ft 7 kts
2026-05-06 13:38 41.79973 12.26514 14 ft 11 kts 332°
2026-05-06 13:38 41.80059 12.26471 14 ft 15 kts 344°
2026-05-06 13:39 41.80129 12.26432 14 ft 9 kts 304°
2026-05-06 13:39 41.80117 12.26340 14 ft 12 kts 255°
2026-05-06 13:39 41.80142 12.26221 14 ft 15 kts 295°
2026-05-06 13:39 41.80182 12.26103 14 ft 12 kts 292°
2026-05-06 13:40 41.80221 12.26051 14 ft 8 kts 358°
2026-05-06 13:40 41.80285 12.26078 14 ft 12 kts 25°
2026-05-06 13:40 41.80338 12.26112 14 ft 3 kts 25°
2026-05-06 13:40 41.80384 12.26140 15 ft 10 kts 25°
2026-05-06 13:41 41.80464 12.26179 16 ft 14 kts
2026-05-06 13:41 41.80534 12.26264 16 ft 16 kts 68°
2026-05-06 13:41 41.80578 12.26422 15 ft 20 kts 70°
2026-05-06 13:41 41.80628 12.26601 15 ft 18 kts 69°
2026-05-06 13:42 41.80676 12.26773 14 ft 21 kts 70°
2026-05-06 13:42 41.80724 12.26950 14 ft 14 kts 69°
2026-05-06 13:42 41.80761 12.27044 14 ft 9 kts 25°
2026-05-06 13:42 41.80831 12.27030 14 ft 12 kts 341°
2026-05-06 13:43 41.80872 12.27011 13 ft 0 kts 340°
2026-05-06 13:44 41.80884 12.27005 13 ft 6 kts 340°
2026-05-06 13:45 41.80941 12.26977 13 ft 7 kts 342°
2026-05-06 13:45 41.80948 12.26890 14 ft 0 kts 250°
2026-05-06 13:46 41.80940 12.26860 13 ft 23 kts 249°
2026-05-06 13:46 41.80791 12.26342 18 ft 93 kts 249°
2026-05-06 13:46 41.80508 12.25292 16 ft 144 kts 250°
2026-05-06 13:46 41.80149 12.23875 259 ft 163 kts 250°
2026-05-06 13:47 41.79852 12.22424 832 ft 161 kts 249°
2026-05-06 13:47 41.79456 12.21062 1521 ft 151 kts 228°
2026-05-06 13:47 41.78719 12.20088 2079 ft 153 kts 212°
2026-05-06 13:47 41.77791 12.19225 2419 ft 173 kts 213°
2026-05-06 13:48 41.76768 12.18190 2803 ft 193 kts 216°
2026-05-06 13:48 41.75527 12.17389 3301 ft 211 kts 188°
2026-05-06 13:48 41.74022 12.17690 3845 ft 239 kts 157°
2026-05-06 13:48 41.72683 12.19209 4592 ft 264 kts 127°
2026-05-06 13:49 41.72032 12.21517 5541 ft 277 kts 101°
2026-05-06 13:49 41.71914 12.24126 6572 ft 283 kts 94°
2026-05-06 13:49 41.71811 12.26811 7580 ft 287 kts 97°
2026-05-06 13:49 41.71560 12.29488 8509 ft 293 kts 102°
2026-05-06 13:50 41.71172 12.32156 9463 ft 298 kts 105°
2026-05-06 13:50 41.70694 12.34879 10399 ft 305 kts 106°
2026-05-06 13:50 41.70146 12.37777 10870 ft 329 kts 107°
2026-05-06 13:50 41.69560 12.40802 11255 ft 351 kts 107°
2026-05-06 13:51 41.68944 12.43997 12032 ft 358 kts 106°
2026-05-06 13:51 41.68315 12.47284 12952 ft 362 kts 106°
2026-05-06 13:51 41.67696 12.50527 13821 ft 367 kts 106°
2026-05-06 13:51 41.67059 12.53860 14602 ft 372 kts 107°
2026-05-06 13:52 41.66416 12.57229 15414 ft 376 kts 107°
2026-05-06 13:52 41.65762 12.60640 16268 ft 382 kts 107°
2026-05-06 13:52 41.65098 12.64109 17249 ft 387 kts 108°
2026-05-06 13:52 41.64428 12.67600 18085 ft 391 kts 108°
2026-05-06 13:53 41.63745 12.71143 18720 ft 396 kts 108°
2026-05-06 13:53 41.63052 12.74729 19346 ft 401 kts 108°
2026-05-06 13:53 41.62349 12.78364 19966 ft 406 kts 108°
2026-05-06 13:53 41.61657 12.81939 20567 ft 411 kts 108°
2026-05-06 13:54 41.60936 12.85656 21187 ft 416 kts 108°
2026-05-06 13:54 41.60206 12.89413 21781 ft 420 kts 108°
2026-05-06 13:54 41.59467 12.93214 22389 ft 425 kts 108°
2026-05-06 13:54 41.58715 12.97064 22988 ft 431 kts 108°
2026-05-06 13:55 41.57956 13.00949 23595 ft 435 kts 108°
2026-05-06 13:55 41.57187 13.04870 24100 ft 439 kts 108°
2026-05-06 13:55 41.56409 13.08835 24594 ft 443 kts 108°
2026-05-06 13:55 41.55622 13.12836 25110 ft 447 kts 108°
2026-05-06 13:56 41.54826 13.16877 25588 ft 451 kts 108°
2026-05-06 13:56 41.54025 13.20937 26074 ft 455 kts 108°
2026-05-06 13:56 41.53213 13.25037 26526 ft 459 kts 108°
2026-05-06 13:56 41.52392 13.29178 26981 ft 463 kts 108°
2026-05-06 13:57 41.51564 13.33347 27435 ft 467 kts 108°
2026-05-06 13:57 41.50726 13.37559 27871 ft 470 kts 109°
2026-05-06 13:57 41.49884 13.41788 28251 ft 475 kts 109°
2026-05-06 13:57 41.49029 13.46063 28592 ft 479 kts 109°
2026-05-06 13:58 41.48167 13.50368 28971 ft 482 kts 109°
2026-05-06 13:58 41.47295 13.54708 29314 ft 486 kts 109°
2026-05-06 13:58 41.46416 13.59078 29670 ft 489 kts 109°
2026-05-06 13:58 41.45541 13.63419 30035 ft 493 kts 109°
2026-05-06 13:59 41.44643 13.67867 30313 ft 497 kts 109°
2026-05-06 13:59 41.43753 13.72352 30644 ft 500 kts 108°
2026-05-06 13:59 41.42887 13.76859 30961 ft 503 kts 108°
2026-05-06 13:59 41.42024 13.81382 31311 ft 505 kts 108°
2026-05-06 14:00 41.41155 13.85923 31730 ft 506 kts 108°
2026-05-06 14:00 41.40285 13.90451 32158 ft 506 kts 108°
2026-05-06 14:00 41.39405 13.94997 32576 ft 506 kts 108°
2026-05-06 14:00 41.38533 13.99482 32907 ft 507 kts 108°
2026-05-06 14:01 41.36768 14.08525 33009 ft 503 kts 108°
2026-05-06 14:01 41.34995 14.17559 33006 ft 505 kts 108°
2026-05-06 14:02 41.33217 14.26582 33005 ft 504 kts 108°
2026-05-06 14:02 41.31432 14.35601 33002 ft 504 kts 108°
2026-05-06 14:03 41.29639 14.44617 32995 ft 504 kts 108°
2026-05-06 14:03 41.27839 14.53627 32992 ft 505 kts 108°
2026-05-06 14:04 41.26031 14.62646 32992 ft 504 kts 108°
2026-05-06 14:04 41.24222 14.71625 32991 ft 504 kts 108°
2026-05-06 14:05 41.22401 14.80621 32995 ft 504 kts 108°
2026-05-06 14:05 41.20576 14.89602 32995 ft 503 kts 108°
2026-05-06 14:06 41.18748 14.98559 32992 ft 502 kts 108°
2026-05-06 14:06 41.16916 15.07493 32998 ft 500 kts 108°
2026-05-06 14:07 41.15088 15.16383 32994 ft 498 kts 108°
2026-05-06 14:07 41.13904 15.25473 32659 ft 500 kts 101°
2026-05-06 14:08 41.13384 15.30027 32395 ft 499 kts 101°
2026-05-06 14:08 41.12863 15.34578 32129 ft 499 kts 101°
2026-05-06 14:08 41.12339 15.39118 31872 ft 499 kts 101°
2026-05-06 14:08 41.11808 15.43666 31612 ft 499 kts 101°
2026-05-06 14:09 41.11274 15.48212 31360 ft 499 kts 101°
2026-05-06 14:09 41.10737 15.52754 31109 ft 498 kts 101°
2026-05-06 14:09 41.10198 15.57297 30859 ft 500 kts 101°
2026-05-06 14:09 41.09657 15.61840 30612 ft 499 kts 101°
2026-05-06 14:10 41.09117 15.66371 30363 ft 496 kts 101°
2026-05-06 14:10 41.08577 15.70875 30128 ft 494 kts 101°
2026-05-06 14:10 41.08037 15.75362 29854 ft 491 kts 101°
2026-05-06 14:10 41.07499 15.79824 29534 ft 489 kts 101°
2026-05-06 14:11 41.06961 15.84268 28937 ft 488 kts 101°
2026-05-06 14:11 41.06424 15.88688 28348 ft 483 kts 101°
2026-05-06 14:11 41.05892 15.93054 27757 ft 477 kts 101°
2026-05-06 14:11 41.05365 15.97369 27174 ft 472 kts 101°
2026-05-06 14:12 41.04848 16.01583 26605 ft 467 kts 101°
2026-05-06 14:12 41.04322 16.05860 26018 ft 462 kts 101°
2026-05-06 14:12 41.03812 16.09990 25451 ft 458 kts 101°
2026-05-06 14:12 41.03298 16.14141 24853 ft 455 kts 101°
2026-05-06 14:13 41.02787 16.18257 24298 ft 451 kts 101°
2026-05-06 14:13 41.02277 16.22348 23712 ft 448 kts 101°
2026-05-06 14:13 41.01771 16.26405 23046 ft 446 kts 101°
2026-05-06 14:13 41.01268 16.30421 22520 ft 439 kts 101°
2026-05-06 14:14 41.00770 16.34383 21940 ft 434 kts 101°
2026-05-06 14:14 41.00277 16.38296 21377 ft 429 kts 102°
2026-05-06 14:14 40.99786 16.42176 20813 ft 425 kts 102°
2026-05-06 14:14 40.99299 16.46016 20242 ft 421 kts 102°
2026-05-06 14:15 40.98815 16.49827 19686 ft 418 kts 102°
2026-05-06 14:15 40.98333 16.53604 19083 ft 416 kts 102°
2026-05-06 14:15 40.97852 16.57367 18552 ft 412 kts 102°
2026-05-06 14:15 40.97375 16.61091 17959 ft 409 kts 101°
2026-05-06 14:16 40.96900 16.64783 17391 ft 404 kts 101°
2026-05-06 14:16 40.96430 16.68437 16841 ft 400 kts 101°
2026-05-06 14:16 40.95964 16.72046 16296 ft 396 kts 101°
2026-05-06 14:16 40.95503 16.75607 15747 ft 392 kts 101°
2026-05-06 14:17 40.95044 16.79143 15207 ft 388 kts 101°
2026-05-06 14:17 40.94588 16.82648 14696 ft 385 kts 101°
2026-05-06 14:17 40.94135 16.86121 14162 ft 382 kts 101°
2026-05-06 14:17 40.93687 16.89547 13602 ft 380 kts 101°
2026-05-06 14:18 40.93244 16.92936 13068 ft 368 kts 101°
2026-05-06 14:18 40.92811 16.96240 12557 ft 363 kts 101°
2026-05-06 14:18 40.92379 16.99518 12045 ft 360 kts 102°
2026-05-06 14:18 40.91950 17.02768 11532 ft 357 kts 102°
2026-05-06 14:19 40.91524 17.05985 11029 ft 354 kts 102°
2026-05-06 14:19 40.91122 17.09185 10519 ft 353 kts 99°
2026-05-06 14:19 40.90875 17.12383 10260 ft 343 kts 99°
2026-05-06 14:19 40.90474 17.15423 10129 ft 329 kts 103°
2026-05-06 14:20 40.90016 17.18313 9949 ft 314 kts 104°
2026-05-06 14:20 40.89576 17.21109 9432 ft 308 kts 103°
2026-05-06 14:20 40.89173 17.23833 9179 ft 297 kts 103°
2026-05-06 14:20 40.88788 17.26554 9000 ft 306 kts 102°
2026-05-06 14:21 40.88528 17.28440 8728 ft 311 kts 102°
2026-05-06 14:21 40.88150 17.31226 8512 ft 305 kts 102°
2026-05-06 14:21 40.87780 17.33969 8163 ft 302 kts 102°
2026-05-06 14:21 40.87413 17.36697 7798 ft 299 kts 102°
2026-05-06 14:22 40.87049 17.39388 7388 ft 298 kts 102°
2026-05-06 14:22 40.86686 17.42066 7065 ft 295 kts 102°
2026-05-06 14:22 40.86327 17.44721 6692 ft 293 kts 102°
2026-05-06 14:22 40.85975 17.47315 6357 ft 289 kts 103°
2026-05-06 14:23 40.85616 17.49950 5954 ft 287 kts 103°
2026-05-06 14:23 40.85262 17.52537 5550 ft 285 kts 102°
2026-05-06 14:23 40.84912 17.55096 5169 ft 283 kts 102°
2026-05-06 14:23 40.84564 17.57629 4824 ft 279 kts 102°
2026-05-06 14:24 40.84219 17.60141 4473 ft 276 kts 102°
2026-05-06 14:24 40.83881 17.62613 4184 ft 268 kts 102°
2026-05-06 14:24 40.83565 17.64921 4038 ft 251 kts 102°
2026-05-06 14:24 40.83267 17.67116 3899 ft 235 kts 103°
2026-05-06 14:25 40.82984 17.69170 3772 ft 221 kts 103°
2026-05-06 14:25 40.82711 17.71149 3543 ft 219 kts 103°
2026-05-06 14:25 40.82436 17.73117 3334 ft 217 kts 103°
2026-05-06 14:25 40.82038 17.75021 3062 ft 213 kts 122°
2026-05-06 14:26 40.81082 17.76425 2856 ft 203 kts 146°
2026-05-06 14:26 40.79977 17.77524 2757 ft 194 kts 146°
2026-05-06 14:26 40.78949 17.78598 2657 ft 184 kts 141°
2026-05-06 14:26 40.78027 17.79746 2461 ft 180 kts 141°
2026-05-06 14:27 40.77118 17.80874 2231 ft 178 kts 141°
2026-05-06 14:27 40.76216 17.81985 2004 ft 177 kts 141°
2026-05-06 14:27 40.75316 17.83084 1733 ft 176 kts 141°
2026-05-06 14:27 40.74423 17.84176 1498 ft 175 kts 140°
2026-05-06 14:28 40.73562 17.85231 1377 ft 164 kts 141°
2026-05-06 14:28 40.72744 17.86234 1267 ft 156 kts 141°
2026-05-06 14:28 40.71957 17.87199 1059 ft 153 kts 140°
2026-05-06 14:28 40.71201 17.88129 839 ft 144 kts 141°
2026-05-06 14:29 40.70499 17.89005 634 ft 133 kts 143°
2026-05-06 14:29 40.69861 17.89796 469 ft 120 kts 144°
2026-05-06 14:29 40.69241 17.90557 386 ft 124 kts 144°
2026-05-06 14:29 40.68604 17.91331 279 ft 124 kts 146°
2026-05-06 14:30 40.67962 17.92095 177 ft 126 kts 143°
2026-05-06 14:30 40.67325 17.92886 59 ft 124 kts 143°
2026-05-06 14:30 40.66822 17.93470 55 ft 71 kts 137°
2026-05-06 14:30 40.66497 17.93884 54 ft 60 kts 136°
2026-05-06 14:31 40.66214 17.94232 54 ft 52 kts 138°
2026-05-06 14:31 40.66052 17.94430 55 ft 20 kts 138°
2026-05-06 14:31 40.65958 17.94537 55 ft 13 kts 163°
2026-05-06 14:31 40.65890 17.94464 55 ft 14 kts 230°
2026-05-06 14:32 40.65862 17.94418 53 ft 0 kts 231°
2026-05-06 14:33 40.65861 17.94417 53 ft 1 kts 231°
2026-05-06 14:33 40.65837 17.94378 53 ft 8 kts 231°
2026-05-06 14:33 40.65793 17.94306 54 ft 12 kts 232°
2026-05-06 14:34 40.65739 17.94212 52 ft 14 kts 234°
2026-05-06 14:34 40.65679 17.94107 56 ft 10 kts 231°
2026-05-06 14:34 40.65659 17.94055 55 ft 4 kts 295°
2026-05-06 14:34 40.65689 17.94020 53 ft 8 kts 321°
2026-05-06 14:35 40.65711 17.93997 56 ft 2 kts 321°
2026-05-06 14:35 40.65729 17.93988 54 ft 3 kts 351°
2026-05-06 14:35 40.65739 17.93989 55 ft 0 kts